Flag for Portugal Weather past 2 weeks in Funchal, Madeira, Portugal

Now
79 °F

Passing clouds.


Feels Like: 80 °F
Forecast: 71 / 80 °F
Wind: 13 mph from Northeast

Location: Aeroporto Da Madeira

Current Time: Aug 23, 2014 at 11:37:13 AM

Latest Report: Aug 23, 2014 at 11:00 AM


Visibility: N/A

Pressure: 30.15 "Hg

Humidity: 54%

Dew point: 61 °F

Location of FunchalLocation

Historic Weather in Funchal — Graph

°F

Funchal temperature yesterday

Maximum temperature yesterday: 79 °F (at 12:00 PM)
Minimum temperature yesterday: 70 °F (at 2:00 AM)
Average temperature yesterday: 74 °F

Past Weeks' High & Low Weather Summary

 TemperatureHumidityPressure
High81 °F (Aug 10, 1:00 PM)83% (Aug 8, 9:00 PM)30.21 "Hg (Aug 8, 9:00 PM)
Low68 °F (Aug 10, 6:30 AM)42% (Aug 12, 4:00 PM)29.98 "Hg (Aug 17, 4:30 PM)
Average73 °F66%30.11 "Hg
* Reported Aug 8 10:00 AM — Aug 23 10:00 AM, Funchal, Weather by CustomWeather, © 2014

Note: Actual official high and low records may vary slightly from our data, if they occured in-between our weather recording intervals... More about our weather records

Advertising

Funchal weather history for previous 24 hours

 ConditionsComfort  
Time TempWeatherWind HumidityBarometerVisibility
10:00 AM
Aug 23
75 °FPassing clouds.8 mph65%30.15 "HgN/A
9:30 AM75 °FPassing clouds.8 mph61%30.15 "HgN/A
9:00 AM73 °FPassing clouds.8 mph61%30.15 "HgN/A
8:30 AM70 °FPassing clouds.9 mph73%30.12 "HgN/A
8:00 AM70 °FPassing clouds.8 mph69%30.12 "HgN/A
7:30 AM70 °FPassing clouds.6 mph69%30.12 "HgN/A
7:00 AM70 °FPassing clouds.6 mph69%30.12 "HgN/A
6:30 AM70 °FPassing clouds.6 mph69%30.12 "HgN/A
6:00 AM70 °FPassing clouds.6 mph73%30.12 "HgN/A
5:30 AM70 °FPassing clouds.5 mph73%30.12 "HgN/A
5:00 AM70 °FPassing clouds.3 mph73%30.12 "HgN/A
4:30 AM70 °FPassing clouds.3 mph78%30.12 "HgN/A
4:00 AM70 °FPassing clouds.3 mph78%30.12 "HgN/A
3:30 AM72 °FPassing clouds.5 mph73%30.15 "HgN/A
3:00 AM72 °FPassing clouds.5 mph73%30.15 "HgN/A
2:30 AM72 °FPassing clouds.5 mph73%30.15 "HgN/A
2:00 AM72 °FPassing clouds.5 mph73%30.15 "HgN/A
1:30 AM72 °FPassing clouds.6 mph73%30.15 "HgN/A
1:00 AM72 °FPassing clouds.5 mph73%30.18 "HgN/A
12:30 AM72 °FPassing clouds.3 mph73%30.18 "HgN/A
12:00 AM72 °FPassing clouds.2 mph73%30.18 "HgN/A
11:30 PM
Aug 22
72 °FPassing clouds.5 mph73%30.18 "HgN/A
11:00 PM72 °FPassing clouds.3 mph73%30.18 "HgN/A
10:30 PM73 °FPassing clouds.2 mph69%30.18 "HgN/A
10:00 PM72 °FPassing clouds.3 mph73%30.15 "HgN/A
9:30 PM73 °FScattered clouds.5 mph69%30.15 "HgN/A
9:00 PM73 °FPassing clouds.5 mph69%30.15 "HgN/A
8:30 PM73 °FPassing clouds.8 mph69%30.15 "HgN/A
8:00 PM73 °FScattered clouds.8 mph69%30.12 "HgN/A
7:30 PM75 °FScattered clouds.8 mph61%30.12 "HgN/A
7:00 PM75 °FScattered clouds.9 mph61%30.12 "HgN/A
6:30 PM75 °FScattered clouds.9 mph61%30.12 "HgN/A
6:00 PM75 °FScattered clouds.9 mph57%30.12 "HgN/A
5:30 PM77 °FScattered clouds.9 mph54%30.12 "HgN/A
5:00 PM77 °FScattered clouds.12 mph54%30.12 "HgN/A
4:30 PM77 °FScattered clouds.13 mph57%30.12 "HgN/A
4:00 PM77 °FScattered clouds.14 mph57%30.12 "HgN/A
3:30 PM77 °FScattered clouds.13 mph57%30.12 "HgN/A
3:00 PM77 °FScattered clouds.13 mph57%30.12 "HgN/A
2:30 PM79 °FScattered clouds.12 mph54%30.15 "HgN/A
2:00 PM77 °FScattered clouds.13 mph57%30.15 "HgN/A
1:30 PM79 °FPassing clouds.12 mph51%30.15 "HgN/A
1:00 PM79 °FPassing clouds.9 mph51%30.15 "HgN/A
12:30 PM79 °FPassing clouds.12 mph51%30.15 "HgN/A
12:00 PM79 °FPassing clouds.12 mph51%30.15 "HgN/A
11:30 AM75 °FPassing clouds.13 mph65%30.15 "HgN/A
11:00 AM77 °FPassing clouds.7 mph61%30.15 "HgN/A
Weather by CustomWeather, © 2014

See weather overviewHow to use our weather pages